Weather History for Paynesville, MN

Change the Weather History Date:

Tuesday, August 26, 2014

  Actual Average (KLJF) Record (KLJF)
Temperature  
Mean Temperature 56 °F -  
Max Temperature 68 °F 79 °F 94 °F (1976)
Min Temperature 44 °F 58 °F 41 °F (1958)
Degree Days  
Heating Degree Days 10    
Growing Degree Days 6 (Base 50)    
Moisture  
Dew Point 50 °F    
Average Humidity 81    
Maximum Humidity 100    
Minimum Humidity 56    
Precipitation  
Precipitation 0.00 in - - ()
Sea Level Pressure  
Sea Level Pressure 30.18 in    
Wind  
Wind Speed 3 mph (WSW)    
Max Wind Speed 8 mph    
Max Gust Speed -    
Visibility 7 miles    
Events Rain    
Averages and records for this station are not official NWS values.
T = Trace of Precipitation, MM = Missing Value Source: NWS Daily Summary

Daily Weather History Graph

Daily Weather History Graph

Search for Another Location

Airport:

Trip Planner

Search our weather history database for the weather conditions in past years. The results will help you decide how hot, cold, wet, or windy it might be!

Date:

Astronomy

Aug. 26, 2014 Rise Set
Actual Time 6:33 AM CDT 8:07 PM CDT
Civil Twilight 6:02 AM CDT 8:38 PM CDT
Nautical Twilight 5:24 AM CDT 9:15 PM CDT
Astronomical Twilight 4:43 AM CDT 9:56 PM CDT
Moon 7:39 AM CDT (8/26) 8:22 PM CDT (8/26)
Length of Visible Light 14h 36m
Length of Day
13h 34m
New Moon, 1% of the Moon is Illuminated
Aug 26
New Moon
Sep 2
First Quarter
Sep 8
Full
Sep 15
Last Quarter
Sep 24
New

Hourly Weather History & Observations

Time (CDT) Temp. Windchill Dew Point Humidity Pressure Visibility Wind Dir Wind Speed Gust Speed Precip Events Conditions
12:14 AM 54.1 °F - 50.9 °F 89% 30.11 in 7.0 mi WSW 3.5 mph - N/A   Clear
12:34 AM 52.0 °F - 50.2 °F 94% 30.12 in 7.0 mi SW 4.6 mph - N/A   Clear
12:54 AM 51.6 °F - 49.5 °F 92% 30.13 in 5.0 mi Calm Calm - N/A   Clear
1:14 AM 50.4 °F - 48.7 °F 94% 30.12 in 7.0 mi Calm Calm - N/A   Clear
1:34 AM 49.5 °F - 48.2 °F 95% 30.13 in 7.0 mi WSW 4.6 mph - N/A   Clear
1:54 AM 50.0 °F - 48.2 °F 94% 30.13 in 10.0 mi WSW 4.6 mph - N/A   Clear
2:14 AM 50.0 °F - 48.2 °F 94% 30.12 in 7.0 mi WSW 4.6 mph - N/A   Clear
2:35 AM 49.6 °F - 48.2 °F 95% 30.11 in 10.0 mi WSW 5.8 mph - N/A   Clear
2:54 AM 49.8 °F - 47.7 °F 92% 30.11 in 7.0 mi WSW 6.9 mph - N/A   Clear
3:14 AM 49.5 °F - 47.1 °F 92% 30.12 in 10.0 mi West 4.6 mph - N/A   Clear
3:34 AM 49.1 °F - 46.9 °F 92% 30.14 in 7.0 mi WSW 4.6 mph - N/A   Clear
3:54 AM 48.2 °F - 46.6 °F 94% 30.14 in 7.0 mi West 3.5 mph - N/A   Clear
4:14 AM 47.3 °F - 46.0 °F 95% 30.15 in 5.0 mi Calm Calm - N/A   Clear
4:34 AM 46.8 °F - 46.0 °F 97% 30.17 in 7.0 mi South 3.5 mph - N/A   Clear
4:54 AM 46.2 °F - 45.7 °F 98% 30.17 in 10.0 mi Calm Calm - N/A   Clear
5:14 AM 45.5 °F 43.2 °F 45.3 °F 99% 30.18 in 10.0 mi SW 4.6 mph - N/A   Clear
5:34 AM 45.5 °F 43.2 °F 45.5 °F 100% 30.18 in 7.0 mi SW 4.6 mph - N/A   Clear
5:54 AM - - - N/A% 30.18 in 7.0 mi South 3.5 mph - N/A   Clear
6:14 AM 45.7 °F - 45.5 °F 99% 30.18 in 7.0 mi Calm Calm - N/A   Clear
6:34 AM 44.6 °F 43.1 °F 44.6 °F 100% 30.18 in 4.0 mi WSW 3.5 mph - N/A   Clear
6:54 AM 44.1 °F - 44.2 °F 100% 30.19 in 4.0 mi Calm Calm - N/A   Clear
7:14 AM 44.8 °F - 45.0 °F 100% 30.19 in 5.0 mi Calm Calm - N/A   Clear
7:34 AM 45.1 °F 43.7 °F 45.3 °F 100% 30.21 in 5.0 mi SSW 3.5 mph - N/A   Clear
7:54 AM 46.8 °F - 46.8 °F 100% 30.22 in 4.0 mi SSW 4.6 mph - N/A   Clear
8:14 AM 49.5 °F - 48.4 °F 96% 30.22 in 5.0 mi SSW 3.5 mph - N/A   Clear
8:33 AM 51.8 °F - 48.2 °F 88% 30.22 in 5.0 mi SSW 3.5 mph - N/A   Clear
8:54 AM 51.8 °F - 48.4 °F 88% 30.22 in 4.0 mi Calm Calm - N/A   Clear
9:14 AM 54.0 °F - 48.2 °F 81% 30.23 in 5.0 mi SSW 3.5 mph - N/A   Haze
9:34 AM 55.4 °F - 47.1 °F 74% 30.23 in 5.0 mi SSW 3.5 mph - N/A   Haze
9:54 AM 56.3 °F - 48.0 °F 74% 30.23 in 4.0 mi SSW 4.6 mph - N/A   Haze
10:14 AM 56.8 °F - 47.8 °F 72% 30.23 in 5.0 mi SW 3.5 mph - N/A   Haze
10:34 AM 57.4 °F - 48.4 °F 72% 30.23 in 5.0 mi Calm Calm - N/A   Haze
10:54 AM 57.9 °F - 48.6 °F 71% 30.22 in 7.0 mi NNW 3.5 mph - N/A   Scattered Clouds
11:14 AM 59.0 °F - 49.1 °F 70% 30.21 in 7.0 mi WSW 3.5 mph - N/A   Clear
11:34 AM 60.3 °F - 49.5 °F 68% 30.21 in 5.0 mi West 5.8 mph - N/A   Haze
11:54 AM 60.6 °F - 49.3 °F 66% 30.20 in 5.0 mi NW 6.9 mph - N/A   Haze
12:14 PM 61.7 °F - 49.5 °F 64% 30.20 in 5.0 mi WSW 3.5 mph - N/A   Haze
12:34 PM 62.1 °F - 49.8 °F 64% 30.20 in 5.0 mi WSW 4.6 mph - N/A   Haze
12:54 PM 62.8 °F - 51.1 °F 66% 30.20 in 5.0 mi SW 4.6 mph - N/A   Haze
1:14 PM 63.7 °F - 51.1 °F 64% 30.19 in 5.0 mi West 5.8 mph - N/A   Haze
1:34 PM 64.6 °F - 51.4 °F 62% 30.18 in 7.0 mi West 8.1 mph - N/A   Clear
1:54 PM 64.8 °F - 51.6 °F 62% 30.18 in 10.0 mi WSW 6.9 mph - N/A   Clear
2:14 PM 66.7 °F - 51.3 °F 57% 30.19 in 7.0 mi West 6.9 mph - N/A   Clear
2:33 PM 67.1 °F - 51.1 °F 56% 30.18 in 7.0 mi WSW 4.6 mph - N/A   Clear
2:54 PM 67.6 °F - 51.6 °F 56% 30.18 in 7.0 mi WNW 4.6 mph - N/A   Clear
3:14 PM 67.8 °F - 52.0 °F 57% 30.18 in 5.0 mi West 4.6 mph - N/A   Haze
3:34 PM 66.4 °F - 51.1 °F 58% 30.17 in 5.0 mi West 5.8 mph - N/A   Haze
4:14 PM 66.4 °F - 50.9 °F 57% 30.17 in 7.0 mi WNW 5.8 mph - N/A   Clear
4:34 PM 66.2 °F - 52.0 °F 60% 30.17 in 7.0 mi WNW 4.6 mph - N/A   Scattered Clouds
4:54 PM 65.7 °F - 52.0 °F 61% 30.17 in 7.0 mi Calm Calm - N/A   Scattered Clouds
5:14 PM 65.3 °F - 52.0 °F 62% 30.18 in 5.0 mi WNW 3.5 mph - N/A   Haze
5:34 PM 64.6 °F - 52.7 °F 65% 30.17 in 7.0 mi WNW 4.6 mph - N/A Rain Heavy Rain
5:54 PM 64.4 °F - 52.2 °F 64% 30.17 in 7.0 mi WNW 3.5 mph - N/A Rain Heavy Rain
6:14 PM 64.4 °F - 53.2 °F 67% 30.18 in 5.0 mi Calm Calm - N/A Rain Heavy Rain
6:34 PM 63.1 °F - 53.6 °F 71% 30.18 in 10.0 mi West 4.6 mph - N/A Rain Heavy Rain
6:54 PM 62.6 °F - 53.2 °F 71% 30.17 in 7.0 mi WNW 3.5 mph - N/A Rain Heavy Rain
7:14 PM 62.2 °F - 53.6 °F 73% 30.17 in 7.0 mi NW 3.5 mph - N/A Rain Heavy Rain
7:34 PM 61.7 °F - 53.6 °F 75% 30.16 in 10.0 mi Calm Calm - N/A Rain Heavy Rain
7:54 PM 61.2 °F - 54.5 °F 79% 30.16 in 7.0 mi West 3.5 mph - N/A Rain Heavy Rain
8:14 PM 60.8 °F - 54.0 °F 78% 30.16 in 10.0 mi Calm Calm - N/A Rain Heavy Rain
8:34 PM 60.6 °F - 54.0 °F 79% 30.16 in 10.0 mi Calm Calm - N/A Rain Heavy Rain
8:54 PM 59.9 °F - 54.7 °F 83% 30.17 in 10.0 mi WNW 3.5 mph - N/A Rain Rain
9:14 PM 59.0 °F - 55.2 °F 87% 30.17 in 10.0 mi WNW 3.5 mph - N/A Rain Heavy Rain
9:34 PM 58.3 °F - 55.4 °F 90% 30.18 in 10.0 mi Calm Calm - N/A Rain Light Rain
9:54 PM 58.1 °F - 55.8 °F 92% 30.18 in 10.0 mi Calm Calm - N/A Rain Heavy Rain
10:14 PM 57.7 °F - 56.3 °F 95% 30.18 in 7.0 mi Calm Calm - N/A Rain Heavy Rain
10:34 PM 57.9 °F - 56.5 °F 95% 30.19 in 10.0 mi Calm Calm - N/A Rain Heavy Rain
10:54 PM 57.6 °F - 56.5 °F 96% 30.19 in 10.0 mi Calm Calm - N/A Rain Heavy Rain
11:14 PM 57.6 °F - 56.3 °F 96% 30.20 in 7.0 mi Calm Calm - N/A Rain Heavy Rain
11:34 PM 57.6 °F - 56.3 °F 96% 30.20 in 10.0 mi Calm Calm - N/A Rain Heavy Rain